Flag for U.S.A. Weather past 2 weeks in Canton, Ohio, U.S.A.

Now
63 °F

Clear.


Feels Like: 63 °F
Forecast: 63 / 79 °F
Wind: 7 mph from West

Location: Akron-Canton Regional Airport

Current Time: Aug 1, 2015 at 6:49:00 AM

Latest Report: Aug 1, 2015 at 5:51 AM


Visibility: 10 mi

Pressure: 29.90 "Hg

Humidity: 78%

Dew point: 56 °F

Location of CantonLocation

Historic Weather in Canton — Graph

°F

Canton temperature yesterday

Maximum temperature yesterday: 86 °F (at 2:51 PM)
Minimum temperature yesterday: 64 °F (at 5:51 AM)
Average temperature yesterday: 76 °F

Past Weeks' High & Low Weather Summary

 TemperatureHumidityPressure
High91 °F (Jul 29, 2:51 PM)94% (Jul 18, 4:51 AM)30.03 "Hg (Jul 18, 4:51 AM)
Low58 °F (Jul 22, 5:51 AM)29% (Jul 23, 6:51 PM)29.70 "Hg (Jul 21, 4:51 AM)
Average76 °F65%29.93 "Hg
* Reported Jul 17 5:51 AM — Aug 1 5:51 AM, Canton, Weather by CustomWeather, © 2015

Note: Actual official high and low records may vary slightly from our data, if they occured in-between our weather recording intervals... More about our weather records

Advertising

Canton weather history for previous 24 hours

 ConditionsComfort  
Time TempWeatherWind HumidityBarometerVisibility
5:51 AM
Sat, Aug 1
63 °FClear.7 mph78%29.90 "Hg10 mi
4:51 AM64 °FPassing clouds.7 mph78%29.89 "Hg10 mi
3:51 AM66 °FPassing clouds.7 mph73%29.88 "Hg10 mi
2:51 AM66 °FPassing clouds.6 mph75%29.89 "Hg10 mi
1:51 AM68 °FPassing clouds.8 mph73%29.89 "Hg10 mi
12:51 AM69 °FPassing clouds.6 mph70%29.89 "Hg10 mi
11:51 PM
Fri, Jul 31
71 °FPassing clouds.7 mph66%29.89 "Hg10 mi
10:51 PM74 °FPassing clouds.8 mph60%29.88 "Hg10 mi
9:51 PM75 °FPartly cloudy.5 mph58%29.87 "Hg10 mi
8:51 PM78 °FLight rain. Broken clouds.12 mph50%29.87 "Hg10 mi
7:51 PM80 °FPassing clouds.7 mph44%29.87 "Hg10 mi
6:51 PM83 °FScattered clouds.10 mph38%29.87 "Hg10 mi
5:51 PM84 °FScattered clouds.12 mph36%29.88 "Hg10 mi
4:51 PM86 °FScattered clouds.13 mph33%29.89 "Hg10 mi
3:51 PM86 °FScattered clouds.16 mph36%29.90 "Hg10 mi
2:51 PM86 °FScattered clouds.13 mph37%29.91 "Hg10 mi
1:51 PM85 °FPassing clouds.15 mph37%29.93 "Hg10 mi
12:51 PM85 °FPassing clouds.13 mph37%29.94 "Hg10 mi
11:51 AM83 °FSunny.12 mph43%29.96 "Hg10 mi
10:51 AM81 °FSunny.8 mph49%29.96 "Hg10 mi
9:51 AM76 °FSunny.9 mph56%29.97 "Hg10 mi
8:51 AM72 °FSunny.8 mph59%29.98 "Hg10 mi
7:51 AM67 °FSunny.5 mph73%29.98 "Hg10 mi
6:51 AM64 °FClear.3 mph78%29.97 "Hg10 mi
Weather by CustomWeather, © 2015

See weather overviewHow to use our weather pages